Simultaneous Nadir Overpasses (SNOs) Predictions

Prediction of SNOs between AQUA and NPP Satellite Orbit:

Table of predicted SNOs for the next 14.0 days since TLE Epoch: 11/10/2018
Index Date (AQUA) Time (AQUA) Lat,Lon (AQUA) SZA (AQUA ) Date (NPP) Time (NPP) Lat,Lon (NPP) SZA (NPP ) Distance(km) Time Diff (sec)
1 11/11/2018 13:17:56 -68.86, 26.18 59.74 11/11/2018 13:16:42 -68.99, 25.52 59.51 29.79 74
2 11/11/2018 14:05:04 76.08,-152.02 113.32 11/11/2018 14:05:05 76.08,-152.00 113.31 0.58 1
3 11/11/2018 14:51:53 -81.65, 58.84 74.95 11/11/2018 14:53:07 -81.23, 59.26 75.18 47.30 74
4 11/14/2018 05:32:25 -75.12, 153.46 64.99 11/14/2018 05:31:36 -75.11, 153.40 64.92 1.98 49
5 11/14/2018 06:21:20 76.59, -34.46 113.49 11/14/2018 06:21:48 76.60, -34.38 113.44 2.37 28
6 11/16/2018 21:48:40 -75.74, -88.91 64.95 11/16/2018 21:48:18 -75.74, -88.91 64.93 0.19 22
7 11/16/2018 22:37:46 76.66, 81.67 114.09 11/16/2018 22:38:42 76.66, 81.62 114.06 1.43 56
8 11/19/2018 13:15:55 74.96,-142.84 116.51 11/19/2018 13:14:44 74.96,-142.83 116.58 0.28 71
9 11/19/2018 14:04:55 -76.35, 28.85 64.93 11/19/2018 14:05:00 -76.36, 28.95 64.96 2.81 5
10 11/22/2018 05:32:09 75.62, -25.12 116.44 11/22/2018 05:31:25 75.63, -25.04 116.46 2.45 44




NCC Satellite Simultaneous Nadir Overpasses (SNOs) Prediction Service
